THOR ABLESTAR DEB, 155

Orbit data source: Space-Track

THOR ABLESTAR DEB, 155 is space debris in LEO originally from a launch on Thu, 29 Jun 1961 UTC launched from the Air Force Eastern Test Range (AFETR). Debris objects in space refer to the collection of defunct objects orbiting the Earth. Examples of debris include non-operational satellites, rocket bodies, and fragments generated from explosions, collisions, or faulty payload assembly.

Loading next visibility...
Identifier
155, 1961-015AR
Orbit
LEO
Country
Flag of USUS
Related business
Manufacturer
Unknown
Mission
Spacecraft
Bus & Motor
Unknown
Mass
Unknown
Launch date (UTC)
1961-06-29 (64 years ago)
Launch vehicle
Unknown
Launch site
Air Force Eastern Test Range (AFETR)
Object type
Payload
Rocket body
Debris
Shape & HBR
Unknown shape, 0.1 m
Radar Cross Section
Small (<0.1 m²)

Expand to show TLE details & history
Last TLE update: 15 hours ago

TLE from 15 hours ago
0 THOR ABLESTAR DEB
1 00155U 61015AR  25300.60258907  .00003292  00000-0  85384-3 0  9998
2 00155  66.8759 171.2862 0031396  77.6454 282.8168 14.50683884327358
Epoch: 2025-10-27T14:27Z
TLE epoch observation values (Epoch: 2025-10-27T14:27:43.695Z)
Latitude
0.00001°
Longitude
-81.84793°
Altitude
720.677 km
Speed
7.498 km/s
True Right ascension
11h 25m 08s
True Declination
0° 00' 00"
Sunlit
Object was in daylight at epoch
Visualization orbit readout
Latitude
Unknown
Longitude
Unknown
Altitude
Unknown
Speed
Unknown
Apparent Right ascension
Unknown
Apparent Declination
Unknown
Sunlit
N/A
Visualization observer readout
Local Sidereal Time
01:02:45
Azimuth
Unknown
Elevation
Unknown
Doppler factor
Unknown
Orbital elements
Apogee altitude
744.045 km
Perigee altitude
699.463 km
Semi-major axis
7,099.891 km
Eccentricity
0.00314
Inclination
66.8759°
RAAN
171.2862°
Arg. of periapsis
77.6454°
True anomaly
282.46569°
Mean anomaly
282.8168°
Eccentric anomaly
282.64127°
Mean motion
3.62799 °/min
Orbital period
99.23 mins
BSTAR
0.00085384
Loading maneuver chart data...
Computing Atmospheric mass density...

Documentation

Showing up to 5 results
|